Regional Weather Roundup
Issued by NWS

Current Version | Previous Version | Text Only | Print | Product List | Glossary Off
Versions: 1 2 3 4 5 6 7 8 9 10 11 12 13 14 15 16 17 18 19 20 21 22 23 24 25 26 27 28 29 30 31 32 33 34 35 36 37 38 39 40 41 42 43 44 45 46 47 48 49 50

749
ASUS42 KFFC 291503
RWRGA
WEATHER ROUNDUP FOR GEORGIA
NATIONAL WEATHER SERVICE PEACHTREE CITY GA
1100 AM EDT FRI APR 29 2016

NOTE: "FAIR" INDICATES FEW OR NO CLOUDS BELOW 12,000 FEET WITH NO
SIGNIFICANT WEATHER AND/OR OBSTRUCTIONS TO VISIBILITY.

* = USE WITH CAUTION. THE STATIONS MARKED WITH AN ASTERISK MAY NOT
REPORT WEATHER SUCH AS PRECIPITATION, FOG, OR THUNDER AND ARE NOT
QUALITY CONTROLLED BY NWS.

THE REMARK "TC" DENOTES TEMPERATURE READING IN DEGREES CELSIUS.

GAZ001>058-291600-
NORTH GEORGIA

CITY           SKY/WX    TMP DP  RH WIND       PRES   REMARKS
ATLANTA        MOSUNNY   79  52  38 CALM      30.04R
ATHENS         SUNNY     80  54  40 NE6       30.02R
CHAMBLEE       SUNNY     80  50  34 N6        30.04R
PEACHTREE CITY SUNNY     78  57  48 N5        30.04R
ROME           SUNNY     76  53  44 CALM      30.05R
WEST ATLANTA   SUNNY     77  58  51 VRB3      30.03R
GAINESVILLE    SUNNY     77  48  35 NW7       30.07R
CARTERSVILLE   SUNNY     77  55  46 VRB6      30.05R


CITY           SKY/WX    TMP DP  RH WIND       PRES   REMARKS
DALTON*        SUNNY     70  59  68 CALM      30.04F
LAWRENCEVILLE* SUNNY     79  54  41 CALM      30.05R
MARIETTA       PTSUNNY   78  54  42 N5        30.03R
KENNESAW*      MOSUNNY   79  54  41 CALM      30.00S
CANTON*        SUNNY     73  50  43 CALM      30.06R
BLAIRSVILLE*     N/A    N/A N/A N/A MISG      30.08R
$$

GAZ059>098-102>109-291600-
CENTRAL GEORGIA

CITY           SKY/WX    TMP DP  RH WIND       PRES   REMARKS
AUGUSTA-BUSH   SUNNY     82  59  45 N7        29.97F
AUGUSTA-DANIEL SUNNY     82  56  40 NE8G16    30.00F
COLUMBUS       SUNNY     81  62  52 VRB6      30.00S
MACON          SUNNY     81  65  58 N3        30.00S
ROBINS AFB     SUNNY     79  66  64 N1        29.99F


CITY           SKY/WX    TMP DP  RH WIND       PRES   REMARKS
LAGRANGE*      SUNNY     79  65  60 NE5       30.03S
SYLVANIA*      SUNNY     82  68  61 N6        30.00S
MILLEDGEVILLE* SUNNY     77  61  57 CALM      30.00F
$$

GAZ099>101-110>166-291600-
SOUTH GEORGIA

CITY           SKY/WX    TMP DP  RH WIND       PRES   REMARKS
SAVANNAH       MOSUNNY   84  65  52 NE6       29.98F
VALDOSTA       MOSUNNY   80  70  71 VRB3      30.00F
ALMA           SUNNY     81  69  67 VRB5      30.00F
ST SIMONS      MOSUNNY   79  71  76 CALM      30.00S
FT STEWART     SUNNY     83  67  58 CALM      29.96F
ALBANY         SUNNY     81  67  62 E6        30.02S
HUNTER AFB     SUNNY     83  67  58 N7        29.96F
MOODY AFB      MOSUNNY   81  69  67 N2        29.99F
BRUNSWICK      SUNNY     82  70  65 W5        30.01S


CITY           SKY/WX    TMP DP  RH WIND       PRES   REMARKS
BAINBRIDGE*    SUNNY     79  70  73 CALM      30.02S
MOULTRIE*      SUNNY     81  70  69 CALM      30.01F
VIDALIA*       SUNNY     81  66  61 NE6       30.00S
WAYCROSS*      MOSUNNY   79  71  76 CALM      30.00F
DOUGLAS*       SUNNY     82  70  65 CALM      30.02S
$$




USA.gov is the U.S. government's official web portal to all federal, state and local government web resources and services.